Regional Weather Roundup
Issued by NWS

Home | Current Version | Previous Version | Graphics & Text | Print | Product List | Glossary Off
Versions: 1 2 3 4 5 6 7 8 9 10 11 12 13 14 15 16 17 18 19 20 21 22 23 24 25 26 27 28 29 30 31 32 33 34 35 36 37 38 39 40 41 42 43 44 45 46 47 48 49 50

000
ASUS43 KFSD 242002
RWRSD

WEATHER ROUNDUP FOR SOUTH DAKOTA
NATIONAL WEATHER SERVICE SIOUX FALLS SD
300 PM CDT FRI OCT 24 2014

NOTE: "FAIR" INDICATES FEW OR NO CLOUDS BELOW 12,000 FEET WITH NO
SIGNIFICANT WEATHER AND/OR OBSTRUCTIONS TO VISIBILITY.


SDZ001>005-009-010-012>017-242100-
NORTHWEST AND NORTH CENTRAL SOUTH DAKOTA

CITY           SKY/WX    TMP DP  RH WIND       PRES   REMARKS
BUFFALO          N/A     65  28  24 NW17G26   29.95S
FAITH            N/A     72  37  28 NW18      29.96S
MOBRIDGE       SUNNY     76  40  27 NW16      29.89S
$$

SDZ012>016-024>037-041>051-057-063-072>074-242100-
SOUTHWEST AND SOUTH CENTRAL SOUTH DAKOTA

CITY           SKY/WX    TMP DP  RH WIND       PRES   REMARKS
RAPID CTY ARPT SUNNY     70  38  31 N17G23    30.00F
PIERRE         SUNNY     76  35  22 W7        29.90F
CUSTER         SUNNY     70  26  19 VRB6      30.09S
ELLSWORTH AFB  SUNNY     69  38  32 N16       30.00F
PHILIP         MOSUNNY   77  35  21 NW6       29.95S
PINE RIDGE     SUNNY     76  35  22 VRB3      30.00F
SPEARFISH      FAIR      64  37  36 N8        30.05F
WINNER         FAIR      77  25  14 CALM      29.93F
$$

SDZ004>011-016>023-039-040-242100-
NORTHEAST SOUTH DAKOTA

CITY           SKY/WX    TMP DP  RH WIND       PRES   REMARKS
ABERDEEN       SUNNY     80  39  23 NW16      29.86F
WATERTOWN      MOSUNNY   73  38  27 NW7       29.88S
SISSETON         N/A     77  38  24 NW14      29.82F
$$

SDZ017-020-022-023-036>040-048>070-242100-
SOUTHEAST SOUTH DAKOTA

CITY           SKY/WX    TMP DP  RH WIND       PRES   REMARKS
SIOUX FALLS    PTSUNNY   75  39  27 NW8       29.88S
HURON          SUNNY     79  33  19 W8        29.87F
CHAMBERLAIN    MOSUNNY   75  34  22 W5        29.92S
MITCHELL       MOSUNNY   75  38  26 VRB3      29.89F
YANKTON        SUNNY     72  43  35 NW6       29.90S
$$

ABBREVIATIONS USED IN REMARKS
   TC - TEMPERATURE IN CELSIUS
  WCI - WIND CHILL INDEX
   HX - HEAT INDEX
  VSB - VISIBILITY




USA.gov is the U.S. government's official web portal to all federal, state and local government web resources and services.